STARLINK-37588, 69842

Orbit data source: Space-Track

STARLINK-37588, 69842 is a payload satellite owned by SpaceX/Seattle (US) in LEO that was launched on Sun, 05 Jul 2026 UTC via an FALCON 9 launch vehicle from the Air Force Eastern Test Range (AFETR). Payload-class satellites include a variety of spacecraft equipped with specific instruments for various scientific and technological missions. These include communications satellites like Starlink; space stations such as the ISS; scientific satellites like the Hubble; Earth observation satellites from companies like Planet Labs, Umbra, and HawkEye 360; GPS; miniature CubeSats for education and research; and military/defense satellites.

Loading next visibility...
Identifier
69842, 2026-154Z
Orbit
LEO
Country
Flag of USUS
Related business
Manufacturer
SpaceX/Seattle
Mission
Operational spacecraft
Bus & Motor
STARLINK V2MO, Unknown motor
Mass
575 kg wet, ~530 kg dry
Launch date (UTC)
2026-07-05 (2 months ago)
Launch vehicle
FALCON 9
Launch site
Air Force Eastern Test Range (AFETR)
Object type
Payload
Rocket body
Debris
Shape & HBR
BOX + PAN, 17.7 m
Radar Cross Section
Large (>1 m²)

Expand to show TLE details & history
Last TLE update: 7 hours ago

TLE from 7 hours ago
0 STARLINK-37588
1 69842U 26154Z   26236.62971170  .00039695  00000-0  11405-2 0  9994
2 69842  53.1596  97.2570 0001227  95.9191 264.1952 15.35465595  9114
Epoch: 2026-08-24T15:06Z
TLE epoch observation values (Epoch: 2026-08-24T15:06:47.090Z)
Latitude
-0.00004°
Longitude
-102.3479°
Altitude
460.525 km
Speed
7.638 km/s
True Right ascension
06h 29m 01s
True Declination
0° 00' 00"
Sunlit
Object was in daylight at epoch
Visualization orbit readout
Latitude
Unknown
Longitude
Unknown
Altitude
Unknown
Speed
Unknown
Apparent Right ascension
Unknown
Apparent Declination
Unknown
Sunlit
N/A
Visualization observer readout
Local Sidereal Time
13:47:29
Azimuth
Unknown
Elevation
Unknown
Doppler factor
Unknown
Orbital elements
Apogee altitude
460.634 km
Perigee altitude
458.956 km
Semi-major axis
6,837.932 km
Eccentricity
0.00012
Inclination
53.1596°
RAAN
97.257°
Arg. of periapsis
95.9191°
True anomaly
264.18121°
Mean anomaly
264.1952°
Eccentric anomaly
264.18821°
Mean motion
3.83845 °/min
Orbital period
93.79 mins
BSTAR
0.0011405
Loading maneuver chart data...
Computing Atmospheric mass density...
Loading historical data...
Loading historical data...
Loading historical data...
Loading historical data...
Loading historical data...
Loading historical data...
Loading historical data...

Documentation

Showing up to 5 results
|